Notices

What's New in latest Release from April 7th, 2021:

- Updated Glossary, including Speed of Maximum Gust, and Total Hourly Precipitation

- Updated national and regional climate services offices contacts and prices information

- Addition of station inventory lists for 1981-2010, 1971-2000, and 1961-1990 Normals.

If you haven't already, please take our survey and provide feedback about our website: https://eccc.sondage-survey.ca/f/LanguageSelection.aspx?s=442ca660-fcf1-47c0-95a9-59707d6fd709

Hourly Data Report for April 11, 2021

WIARTON A
ONTARIO
Current Station Operator: NAVCAN

44°44'39.000" N
81°06'31.000" W
221.90 m
6119499
71633
YVV

Download Data

Hourly Data (April 2021)
Hourly Data Report for April 11, 2021
TIME
LST
Temp Definition
°C
Dew Point Definition
°C
Rel Hum Definition
%
Precip. Amount Definition
mm

Wind Dir Definition
10's deg

Wind Spd Definition
km/h
Visibility Definition
km
Stn Press Definition
kPa
Hmdx Definition


Wind Chill Definition


Weather Definition


00:00 16.8 8.3 57   10 13 24.1 97.26     LegendNANA
01:00 10.4 6.9 79   0 1 24.1 97.20     Cloudy
02:00 16.4 7.4 55   13 13 24.1 97.15     LegendNANA
03:00 10.9 6.3 73   36 1 24.1 97.10     LegendNANA
04:00 10.2 6.4 77   36 1 24.1 97.07     Cloudy
05:00 10.3 6.5 77   36 2 24.1 97.08     Rain
06:00 11.9 10.2 89   11 7 16.1 97.09     Rain
07:00 13.0 11.7 92   7 14 9.7 97.06     Rain,Fog
08:00 13.5 12.0 91   9 21 9.7 97.03     Rain,Fog
09:00 12.8 11.5 92   10 24 9.7 97.06     Rain,Fog
10:00 12.8 11.9 94   11 19 6.4 97.10     Rain,Fog
11:00 13.1 12.4 95   12 19 6.4 97.14     Rain,Fog
12:00 13.6 12.6 94   12 11 6.4 97.14     Rain,Fog
13:00 13.9 9.8 76   5 9 24.1 97.12     Cloudy
14:00 14.4 12.6 89   10 7 24.1 97.18     LegendNANA
15:00 16.7 10.6 67   11 15 24.1 97.19     LegendNANA
16:00 16.1 11.2 72   7 23 24.1 97.22     Mostly Cloudy
17:00 16.9 10.7 67   9 22 24.1 97.24     LegendNANA
18:00 15.0 12.3 84   11 13 24.1 97.33     Thunderstorms
19:00 9.7 9.3 97   36 3 19.3 97.43     Rain Showers
20:00 10.6 10.2 98   7 9 24.1 97.45     LegendNANA
21:00 10.9 10.7 99   7 11 24.1 97.44     LegendNANA
22:00 10.9 9.7 92   0 1 16.1 97.46     Cloudy
23:00 9.6 9.3 98   6 7 9.7 97.51     Rain,Fog

Notes on Data Quality.

Legend

  • E = Estimated
  • M = Missing
  • NA = Not Available*
  • [empty] = Indicates an unobserved value
Date modified: